Location: Newark
(43.0658°N, 122.2322°W)
Time: 10:00:17
(UTC+00:00)

STARLINK-1757 - Pass Details

Date: 21 September 2020
Orbit: 378 x 381 km, 53.0° (Epoch: 24 October)

Event Time Altitude Azimuth Distance (km) Brightness Sun altitude
Exits shadow 12:07:24 15° 344° (NNW) 1,160 5.3 -20.2°
Maximum altitude 12:07:42 15° 351° (N) 1,153 5.4 -20.1°
Drops below altitude 10° 12:09:35 10° 28° (NNE) 1,403 6.4 -19.8°
Sets 12:12:18 0° 54° (NE) 2,258 8.1 -19.3°
